Regional Weather Roundup
Issued by NWS Wakefield, VA

Home | Current Version | Previous Version | Text Only | Print | Product List | Glossary Off
Versions: 1 2 3 4 5 6 7 8 9 10 11 12 13 14 15 16 17 18 19 20 21 22 23 24 25 26 27 28 29 30 31 32 33 34 35 36 37 38 39 40 41 42 43 44 45 46 47 48 49 50

677
ASUS41 KAKQ 201815
RWRAKQ

REGIONAL WEATHER ROUNDUP
NATIONAL WEATHER SERVICE WAKEFIELD VA
200 PM EDT FRI OCT 20 2017

Note: "fair" indicates few or no clouds below 12,000 feet with no
significant weather and/or obstructions to visibility. * = Denotes
station may not report precipitation (e.g., rain,snow,etc.),
thunder or fog.

VAZ042-051-052>054-056-201900-
NORTHERN VIRGINIA

CITY           SKY/WX    TMP DP  RH WIND       PRES   REMARKS
WASH NATIONAL  PTSUNNY   76  46  34 NW13      30.22F
DULLES         MOSUNNY   74  39  28 N13       30.22F
FORT BELVOIR   SUNNY     75  46  34 W12G20    30.21F
QUANTICO       MOSUNNY   77  46  33 NW14      30.22F
FREDERICKSBRG* SUNNY     77  51  41 NW9       30.20F
STAFFORD*      SUNNY     76  47  36 N9        30.25F
WARRENTON      SUNNY     78  42  27 NW9       30.22F
CULPEPER*        N/A     76  47  36 N8        30.22F
MANASSAS*      SUNNY     75  47  36 N8        30.23F
LEESBURG*      SUNNY     73  43  33 N9        30.24F
WINCHESTER     SUNNY     70  39  32 N6        30.24F
FRONT ROYAL*   CLEAR     73  43  33 N8        30.23F
LURAY*         CLEAR     75  46  35 NE3       30.23F
$$

VAZ048-049-060>072-079>083-201900-
CENTRAL AND SOUTH CENTRAL VIRGINIA

CITY           SKY/WX    TMP DP  RH WIND       PRES   REMARKS
RICHMOND       MOSUNNY   78  53  41 VRB6      30.21F
CHESTERFIELD*  NOT AVBL
PETERSBURG*    SUNNY     76  50  40 CALM      30.22F
HANOVER        SUNNY     78  54  43 VRB6      30.22F
TAPPAHANNOCK*  SUNNY     78  42  27 N6        30.22F
QUINTON*       FAIR      76  54  47 NW8       30.21F
CHARLOTTSVILLE SUNNY     78  48  34 VRB3      30.21F
GORDONSVILLE*  CLEAR     77  53  42 CALM      30.21F
ORANGE*        SUNNY     75  50  41 CALM      30.21F
LOUISA*        SUNNY     75  50  41 CALM      30.21F
BUMPASS*       FAIR      76  53  45 CALM      30.22F
FARMVILLE*     SUNNY     78  49  37 N5        30.21F
CREWE*         FAIR      76  49  39 NW5       30.22F
FORT PICKETT*  FAIR      76  49  37 CALM      30.23F
CHASE CITY*    FAIR      77  47  34 CALM      30.22F
CLARKSVILLE*   FAIR      75  48  38 E3        30.23F
SOUTH HILL*    SUNNY     76  51  41 E3        30.27F
LAWRENCEVILLE* FAIR      76  49  38 CALM      30.22F
EMPORIA*       SUNNY     75  50  41 NW5       30.23F
$$

VAZ088>098-201900-
SOUTHEAST VIRGINIA

CITY           SKY/WX    TMP DP  RH WIND       PRES   REMARKS
NORFOLK        SUNNY     74  57  55 N7        30.21F
VIRGINIA BEACH MOSUNNY   75  54  47 N8        30.19F
NORFOLK NAVAL  MOSUNNY   74  54  49 NE7       30.22F
WEST POINT*    SUNNY     76  50  40 CALM      30.22F
SALUDA*        FAIR      73  56  56 NW3       30.20F
NEWPORT NEWS   SUNNY     75  53  46 VRB5      30.21F
LANGLEY AFB    SUNNY     74  54  48 E8        30.20F
FORT EUSTIS    SUNNY     78  55  45 NW7       30.18F
WILLIAMSBURG*  SUNNY     81  55  41 NW3       30.21F
HR EXEC AP*    NOT AVBL
FRANKLIN*      SUNNY     76  51  41 CALM      30.21F
US460-WAKEFLD  SUNNY     77  51  40 N3        30.21F
$$

VAZ020-022-025-037-045-201900-
WEST CENTRAL AND SOUTHWEST VIRGINIA

CITY           SKY/WX    TMP DP  RH WIND       PRES   REMARKS
STAUNTON*      SUNNY     74  48  39 N5        30.25F HAZE
WAYNESBORO*    CLEAR     72  48  41 N6        30.25F
HOT SPRINGS VA SUNNY     64  46  51 W7        30.33F
LYNCHBURG      SUNNY     75  46  35 CALM      30.24F
DANVILLE       SUNNY     75  46  35 CALM      30.24F
SOUTH BOSTON*  FAIR      76  44  31 CALM      30.23F
MARTINSVILLE   SUNNY     75  49  39 CALM      30.27F
ROANOKE        SUNNY     72  50  45 CALM      30.27F
BLACKSBURG     SUNNY     70  51  51 W6        30.32F
DUBLIN*        SUNNY     71  50  47 SW3       30.31F
MARION*        SUNNY     71  41  34 W8        30.33F
HILLSVILLE*    SUNNY     66  39  37 CALM      30.30F
RICHLANDS*     FAIR      68  -3   6 CALM      30.32F
WISE*          SUNNY     68  46  45 CALM      30.33F
ABINGDON*      SUNNY     71  46  39 CALM      30.30F
$$

MDZ021>025-VAZ099-100-201900-
SOUTHERN MARYLAND AND THE DELMARVA PENINSULA

CITY           SKY/WX    TMP DP  RH WIND       PRES   REMARKS
PATUXENT RIVER MOSUNNY   74  52  46 NE10      30.20F
BAY BRIDGE APT SUNNY     72  50  46 N9        30.21F
LEONARDTOWN    NOT AVBL
DOVER          MOSUNNY   74  42  32 W12       30.17R
GEORGETOWN     SUNNY     75  47  36 NW9       30.18F
EASTON         SUNNY     75  46  35 N10G16    30.24F
CAMBRIDGE      SUNNY     73  50  43 NW8       30.20F
SALISBURY      SUNNY     76  49  38 N12       30.18F
OCEAN CITY     SUNNY     75  54  47 NE7       30.18F
WALLOPS ISLAND MOSUNNY   76  55  48 VRB6      30.18F
ACCOMACK*      SUNNY     73  56  55 NW7       30.19F
$$

NCZ012>017-030>032-201900-
NORTH CENTRAL AND EASTERN NORTH CAROLINA

CITY           SKY/WX    TMP DP  RH WIND       PRES   REMARKS
ROANOKE RAPIDS FAIR      75  52  43 NE6       30.22F
RALEIGH        MOSUNNY   75  46  35 VRB6      30.23F
ELIZABETH CITY SUNNY     77  51  40 NE5       30.20F
AHOSKIE*       SUNNY     74  51  43 N8        30.22F
EDENTON*       SUNNY     76  55  46 CALM      30.21F
CURRITUCK*     SUNNY     74  52  47 E6        30.21F
KILL DEVIL HLS SUNNY     72  54  53 CALM      30.19F
MANTEO         SUNNY    N/A N/A N/A N6        30.21F
CAPE HATTERAS  SUNNY     74  59  59 NW6       30.20F
TARBORO*       NOT AVBL
GOLDSBORO      SUNNY     79  47  31 NW5       30.19F
WASHINGTON     SUNNY     77  51  38 N3        30.20F
GREENVILLE     SUNNY     77  52  41 N3        30.21F
NEW BERN       SUNNY     78  49  35 N5        30.21F
WILMINGTON     SUNNY     78  49  35 W3        30.20F
$$

VAZ048-201900-
ELSEWHERE

CITY           SKY/WX    TMP DP  RH WIND       PRES   REMARKS
HARRISBURG PA  SUNNY     71  47  42 W9        30.20F
BALTIMORE      MOSUNNY   73  46  38 VRB5      30.20F
ANNAPOLIS      SUNNY     75  51  43 NW7       30.20F
ANDREWS AFB    SUNNY     74  45  35 N8        30.20F
PHILADELPHIA   MOSUNNY   73  37  27 NW12      30.17F
HENDERSON NC   SUNNY     73  45  37 E5        30.24F
GREENSBORO     MOSUNNY   74  47  38 NE6       30.24F
ROCKY MOUNT    SUNNY     78  51  38 NE6       30.21F
$$

VAZ100-201900-
MARINE

STATION/POSITION TIME  TEMP    WIND        PRES    WAVE   SWELL
                       AIR SEA DIR/SP/G            HT/PER HT/PER
                 (UTC) (F)     (DEG/KT/KT) (MB)    (FT/S) (FT/S)
BRANDYWINE LGT   1742   68     350/ 11/ 12 1022.4F
CAPE MAY NJ      1742   71 65  310/  8/ 13 1021.6F
LEWES DE         1742   67 65   10/ 12/ 13 1022.0F
15NM E FENWICK I 1750   67 68  320/ 14/ 14 1022.3F   3/ 9   2/ 9
OCEAN-CITY-INLET 1742   70 67   20/  7/  9 1022.3F
WACHAPREAGUE VA  1742   74 67  320/  5/  8 1022.4F
THOMAS POINT MD  1800   68 68   50/  8/  9   N/A
GOOSES REEF MD   1800   69 69   40/  8/ 10 1027.0    1/ 2
COVE POINT MD    1742   68      40/ 11/ 12 1023.4F
SOLOMONS ISLAND  1742   71 70   20/  5/  8 1022.3F
BISHOPS HEAD MD  1742   68 66  290/ 11/ 12 1023.0F
PINEY POINT MD   1736          310/  9/ 10   N/A
POTOMAC MD       1800   70 68  320/  2/  8 1022.2    1/ 2
CAMBRIDGE MD     1742   73 68              1023.6F
LEWISETTA VA     1742   71 65   20/  3/  6 1022.8F
RAPPAHANNOCK LGT 1736          330/  8/  8 1023.6F
STINGRAY PT      1800   70 69   80/  4/  4 1023.2    1
YORK RVR RNG VA  1736   71      30/  4/  4 1023.5F
YORKTOWN VA      1736   72 70  360/  1/  2 1022.6F
JAMESTOWN VA     1800      70  280/  6/  6   N/A     0
DOMINION TERM VA 1736   72      60/  6/  9 1023.2F
KIPTOPEKE VA     1736      68  320/ 11/ 12   N/A
CAPE HENRY VA    1736   69     330/  7/  9   N/A
WILLOUBY STN VA  1736   69      40/  9/  9 1023.0F
S CRANEY ISL VA  1736   71      30/ 10/ 13 1022.9F
CAPE HENRY BUOY  1800      70                N/A     2/ 8
1ST LANDING BUOY 1800   69 70              1022.8    1/ 3
CAPE CHARLES BUO 1751      71                N/A     2/ 9
64NM E OF VA BCH 1750   68 68  350/  8/ 10 1022.7F   3/ 9   2/ 9
DUCK PIER NC     1736   68 70   20/  5/  7 1022.4F
44100 DUCK FRF   1735      71                N/A     2/ 9
44056 DUCK FRF   1800      70                N/A     2/ 8
OREGON INLET NC  1736   70 68   10/  8/ 10 1022.5F
HATTERAS NC      1736   70 70  300/  5/  6 1022.7F
DIAMOND SHLS NC  1750   72 81  340/  6/ 10 1022.4F   3/ 9   3/ 9
CAPE LOOKOUT NC  1800   74     310/  3/  5 1022.2F
$$




USA.gov is the U.S. government's official web portal to all federal, state and local government web resources and services.